Météo par heure à Porto-Novo

Ce jour, 13 Avril, Mardi

Heure Température Précipitation Vent Pression Humidité
00:00 +29°C° 0 mm 3 m/s 756 mmHg 82%
01:00 +29°C° 0 mm 3 m/s 756 mmHg 83%
02:00 +29°C° 0 mm 4 m/s 756 mmHg 83%
03:00 +29°C° 0 mm 4 m/s 755 mmHg 84%
04:00 +29°C° 0 mm 4 m/s 756 mmHg 84%
05:00 +29°C° 0 mm 3 m/s 756 mmHg 84%
06:00 +29°C° 0 mm 3 m/s 757 mmHg 83%
07:00 +30°C° 0 mm 4 m/s 757 mmHg 77%
08:00 +32°C° 0 mm 4 m/s 758 mmHg 71%
09:00 +33°C° 0 mm 4 m/s 758 mmHg 65%
10:00 +35°C° 0 mm 4 m/s 758 mmHg 59%
11:00 +36°C° 0 mm 4 m/s 758 mmHg 54%
12:00 +37°C° 0 mm 5 m/s 757 mmHg 49%
13:00 +37°C° 0 mm 5 m/s 757 mmHg 50%
14:00 +36°C° 0 mm 5 m/s 756 mmHg 50%
15:00 +36°C° 0 mm 5 m/s 755 mmHg 51%
16:00 +35°C° 0 mm 5 m/s 755 mmHg 58%
17:00 +33°C° 0 mm 4 m/s 755 mmHg 65%
18:00 +32°C° 0 mm 4 m/s 755 mmHg 72%
19:00 +30°C° 0 mm 4 m/s 756 mmHg 74%
20:00 +30°C° 0 mm 4 m/s 757 mmHg 77%
21:00 +30°C° 0 mm 4 m/s 757 mmHg 79%
22:00 +30°C° 0 mm 4 m/s 757 mmHg 81%
23:00 +30°C° 0 mm 4 m/s 757 mmHg 82%

Demain, 14 Avril, Mercredi

Heure Température Précipitation Vent Pression Humidité
00:00 +29°C° 0 mm 3 m/s 757 mmHg 83%
01:00 +29°C° 0 mm 3 m/s 756 mmHg 83%
02:00 +29°C° 0 mm 3 m/s 756 mmHg 83%
03:00 +29°C° 0 mm 3 m/s 755 mmHg 83%
04:00 +29°C° 0 mm 3 m/s 756 mmHg 84%
05:00 +29°C° 0 mm 3 m/s 756 mmHg 86%
06:00 +28°C° 0 mm 3 m/s 756 mmHg 87%
07:00 +30°C° 0 mm 3 m/s 757 mmHg 77%
08:00 +33°C° 0 mm 3 m/s 757 mmHg 67%
09:00 +35°C° 0 mm 4 m/s 758 mmHg 57%
10:00 +36°C° 0 mm 4 m/s 757 mmHg 54%
11:00 +36°C° 0 mm 4 m/s 757 mmHg 51%
12:00 +37°C° 0 mm 5 m/s 757 mmHg 47%
13:00 +37°C° 0 mm 5 m/s 756 mmHg 49%
14:00 +36°C° 0 mm 5 m/s 756 mmHg 50%
15:00 +36°C° 0 mm 5 m/s 755 mmHg 51%
16:00 +35°C° 0 mm 5 m/s 755 mmHg 57%
17:00 +33°C° 0 mm 4 m/s 755 mmHg 64%
18:00 +31°C° 0 mm 3 m/s 756 mmHg 71%
19:00 +31°C° 0 mm 3 m/s 756 mmHg 73%
20:00 +30°C° 0 mm 4 m/s 757 mmHg 75%
21:00 +30°C° 0 mm 4 m/s 757 mmHg 77%
22:00 +30°C° 0 mm 4 m/s 757 mmHg 78%
23:00 +30°C° 0 mm 4 m/s 757 mmHg 80%

Après-demain, 15 Avril, Jeudi

Heure Température Précipitation Vent Pression Humidité
00:00 +30°C° 0 mm 4 m/s 757 mmHg 81%
01:00 +29°C° 0 mm 4 m/s 756 mmHg 81%
02:00 +29°C° 0 mm 4 m/s 756 mmHg 82%
03:00 +29°C° 0 mm 4 m/s 755 mmHg 82%
04:00 +29°C° 0 mm 3 m/s 756 mmHg 83%
05:00 +29°C° 0 mm 3 m/s 756 mmHg 84%
06:00 +29°C° 0 mm 2 m/s 756 mmHg 85%
07:00 +30°C° 0 mm 2 m/s 757 mmHg 76%
08:00 +33°C° 0 mm 3 m/s 757 mmHg 67%
09:00 +34°C° 0 mm 3 m/s 758 mmHg 58%
10:00 +35°C° 0 mm 3 m/s 757 mmHg 55%
11:00 +36°C° 0 mm 4 m/s 756 mmHg 51%
12:00 +37°C° 0 mm 4 m/s 756 mmHg 47%
13:00 +37°C° 0 mm 4 m/s 755 mmHg 49%
14:00 +36°C° 0 mm 5 m/s 755 mmHg 51%
15:00 +36°C° 0 mm 5 m/s 754 mmHg 53%
16:00 +34°C° 0 mm 4 m/s 754 mmHg 60%
17:00 +33°C° 0 mm 4 m/s 755 mmHg 67%
18:00 +30°C° 0 mm 3 m/s 755 mmHg 75%
19:00 +30°C° 0 mm 4 m/s 755 mmHg 76%
20:00 +30°C° 0 mm 4 m/s 756 mmHg 78%
21:00 +30°C° 0 mm 4 m/s 756 mmHg 79%
22:00 +29°C° 0 mm 4 m/s 756 mmHg 80%
23:00 +29°C° 0 mm 4 m/s 755 mmHg 82%

16 Avril, Vendredi

Heure Température Précipitation Vent Pression Humidité
00:00 +29°C° 0 mm 5 m/s 755 mmHg 83%
01:00 +29°C° 0 mm 4 m/s 755 mmHg 84%
02:00 +29°C° 0 mm 4 m/s 755 mmHg 84%
03:00 +29°C° 0 mm 4 m/s 754 mmHg 85%
04:00 +29°C° 0 mm 4 m/s 755 mmHg 85%
05:00 +29°C° 0 mm 3 m/s 755 mmHg 85%
06:00 +29°C° 0 mm 3 m/s 755 mmHg 85%
07:00 +30°C° 0 mm 4 m/s 756 mmHg 76%
08:00 +33°C° 0 mm 4 m/s 756 mmHg 68%
09:00 +34°C° 0 mm 4 m/s 757 mmHg 59%
10:00 +35°C° 0 mm 4 m/s 756 mmHg 56%
11:00 +36°C° 0 mm 5 m/s 756 mmHg 53%
12:00 +37°C° 0 mm 5 m/s 756 mmHg 50%
13:00 +36°C° 0 mm 5 m/s 755 mmHg 50%
14:00 +36°C° 0 mm 5 m/s 755 mmHg 51%
15:00 +36°C° 0 mm 5 m/s 754 mmHg 51%
16:00 +35°C° 0 mm 5 m/s 754 mmHg 58%
17:00 +33°C° 0 mm 5 m/s 754 mmHg 66%
18:00 +32°C° 0 mm 5 m/s 754 mmHg 73%
19:00 +30°C° 0 mm 4 m/s 755 mmHg 75%
20:00 +30°C° 0 mm 4 m/s 756 mmHg 76%
21:00 +30°C° 0 mm 3 m/s 756 mmHg 78%
22:00 +30°C° 0 mm 3 m/s 756 mmHg 80%
23:00 +29°C° 0 mm 4 m/s 756 mmHg 81%

17 Avril, Samedi

Heure Température Précipitation Vent Pression Humidité
00:00 +29°C° 0 mm 4 m/s 755 mmHg 83%
01:00 +29°C° 0 mm 4 m/s 755 mmHg 83%
02:00 +29°C° 0 mm 5 m/s 754 mmHg 83%
03:00 +29°C° 0 mm 5 m/s 754 mmHg 83%
04:00 +29°C° 0 mm 4 m/s 754 mmHg 83%
05:00 +29°C° 0 mm 4 m/s 755 mmHg 84%
06:00 +29°C° 0 mm 3 m/s 755 mmHg 84%
07:00 +30°C° 0.1 mm 4 m/s 756 mmHg 76%
08:00 +33°C° 0.1 mm 4 m/s 756 mmHg 67%
09:00 +35°C° 0.1 mm 4 m/s 756 mmHg 59%
10:00 +35°C° 0 mm 5 m/s 756 mmHg 56%
11:00 +36°C° 0 mm 5 m/s 756 mmHg 54%
12:00 +36°C° 0 mm 5 m/s 756 mmHg 51%
13:00 +36°C° 0 mm 5 m/s 755 mmHg 52%
14:00 +36°C° 0 mm 5 m/s 755 mmHg 53%
15:00 +35°C° 0 mm 5 m/s 755 mmHg 54%
16:00 +34°C° 0.1 mm 5 m/s 755 mmHg 60%
17:00 +33°C° 0.1 mm 4 m/s 755 mmHg 65%
18:00 +32°C° 0.1 mm 4 m/s 755 mmHg 71%
19:00 +30°C° 0 mm 4 m/s 756 mmHg 73%
20:00 +30°C° 0 mm 4 m/s 756 mmHg 75%
21:00 +30°C° 0 mm 5 m/s 757 mmHg 77%
22:00 +30°C° 0 mm 4 m/s 757 mmHg 78%
23:00 +29°C° 0 mm 3 m/s 757 mmHg 79%

18 Avril, Dimanche

Heure Température Précipitation Vent Pression Humidité
00:00 +29°C° 0 mm 3 m/s 757 mmHg 80%
01:00 +29°C° 0 mm 3 m/s 756 mmHg 81%
02:00 +29°C° 0 mm 3 m/s 756 mmHg 81%
03:00 +29°C° 0 mm 3 m/s 755 mmHg 82%
04:00 +28°C° 0 mm 3 m/s 756 mmHg 83%
05:00 +28°C° 0 mm 3 m/s 756 mmHg 83%
06:00 +28°C° 0 mm 2 m/s 756 mmHg 84%
07:00 +30°C° 0 mm 3 m/s 757 mmHg 76%
08:00 +31°C° 0 mm 3 m/s 757 mmHg 68%
09:00 +34°C° 0 mm 3 m/s 757 mmHg 60%
10:00 +35°C° 0 mm 4 m/s 757 mmHg 56%
11:00 +36°C° 0 mm 4 m/s 757 mmHg 51%
12:00 +37°C° 0 mm 4 m/s 756 mmHg 47%
13:00 +37°C° 0 mm 4 m/s 756 mmHg 49%
14:00 +36°C° 0 mm 5 m/s 755 mmHg 51%
15:00 +36°C° 0 mm 5 m/s 755 mmHg 52%
16:00 +34°C° 0 mm 5 m/s 755 mmHg 59%
17:00 +33°C° 0 mm 4 m/s 755 mmHg 66%
18:00 +30°C° 0 mm 4 m/s 756 mmHg 74%
19:00 +30°C° 0 mm 4 m/s 756 mmHg 75%
20:00 +30°C° 0 mm 4 m/s 756 mmHg 77%
21:00 +30°C° 0 mm 3 m/s 757 mmHg 79%
22:00 +30°C° 0 mm 4 m/s 756 mmHg 80%
23:00 +30°C° 0 mm 4 m/s 756 mmHg 80%
Voir plus

Nous avons besoin de votre consentement

Meteoprog et ses fournisseurs de services peuvent stocker et accéder à des données personnelles telles que des cookies, des identifiants d'appareils ou d'autres technologies similaires sur votre appareil et traiter ces données pour personnaliser le contenu et les publicités, ainsi que pour fournir des fonctionnalités de médias sociaux et analyser le trafic.

  • Stocker et/ou accéder à des informations sur votre appareil

    Des cookies, des identifiants d'appareils ou d'autres informations peuvent être stockés ou accessibles sur votre appareil aux fins indiquées ci-dessus.

  • Annonces et contenus personnalisés, mesure des annonces et des contenus, connaissance de l'audience et développement de produits

    Les annonces et le contenu peuvent être personnalisés en fonction d'un profil. D'autres données peuvent être ajoutées pour mieux personnaliser les annonces et le contenu. Les performances des publicités et du contenu peuvent être mesurées. Il est possible d'obtenir des informations sur le public qui a vu les publicités et le contenu. Ces données peuvent être utilisées pour développer ou améliorer l'expérience de l'utilisateur, les systèmes et les logiciels.

En cliquant sur "J'accepte", vous autorisez l'utilisation de cookies, des identifiants d'appareils, des balises web ou d'autres technologies similaires. Vos paramètres peuvent être modifiés dans le navigateur de votre appareil.

Dans certains cas, des intérêts légitimes peuvent être invoqués plutôt qu'un consentement. Vous pouvez en savoir plus à ce sujet dans notre Politique de confidentialité et de cookies.